Weather History for KMDT - October, 2012

Change the Weather History Date:

Saturday, October 6, 2012

  Actual Average Record
Temperature  
Mean Temperature 58 °F 58 °F  
Max Temperature 67 °F 67 °F 93 °F (1941)
Min Temperature 49 °F 48 °F 32 °F (1958)
Degree Days  
Heating Degree Days 7 8  
Month to date heating degree days 17 43  
Since 1 July heating degree days 70 115  
Cooling Degree Days 0 1  
Month to date cooling degree days 5 6  
Year to date cooling degree days 1226 999  
Growing Degree Days 8 (Base 50)    
Moisture  
Dew Point 50 °F    
Average Humidity 70    
Maximum Humidity 93    
Minimum Humidity 48    
Precipitation  
Precipitation 0.00 in 0.12 in 1.02 in (1938)
Month to date precipitation 0.87 0.74  
Year to date precipitation 34.67 31.75  
Snow  
Snow 0.00 in - - ()
Month to date snowfall 0.0  
Since 1 July snowfall 0.0  
Since 1 September snowfall 0.0  
Snow Depth 0.00 in    
Sea Level Pressure  
Sea Level Pressure 29.91 in    
Wind  
Wind Speed 8 mph (WNW)    
Max Wind Speed 23 mph    
Max Gust Speed 29 mph    
Visibility 9 miles    
Events      
T = Trace of Precipitation, MM = Missing Value Source: NWS Daily Summary

Daily Weather History Graph

Daily Weather History Graph

Search for Another Location

Airport or City:

Trip Planner

Search our weather history database for the weather conditions in past years. The results will help you decide how hot, cold, wet, or windy it might be!

Date:

Astronomy

Oct. 06, 2012 Rise Set
Actual Time 7:08 AM EDT 6:40 PM EDT
Civil Twilight 6:41 AM EDT 7:07 PM EDT
Nautical Twilight 6:10 AM EDT 7:38 PM EDT
Astronomical Twilight 5:38 AM EDT 8:10 PM EDT
Moon 10:53 PM EDT (10/6) 1:02 PM EDT (10/6)
Length of Visible Light 12h 25m
Length of Day
11h 31m
Waning Gibbous, 65% of the Moon is Illuminated
Oct 6
Waning Gibbous
Oct 8
Last Quarter
Oct 15
New
Oct 21
First Quarter
Oct 29
Full

Hourly Weather History & Observations

Time (EDT) Temp. Dew Point Humidity Pressure Visibility Wind Dir Wind Speed Gust Speed Precip Events Conditions
12:56 AM 66.0 °F 55.9 °F 70% 29.91 in 10.0 mi SW 8.1 mph - N/A   Clear
1:56 AM 64.9 °F 55.9 °F 73% 29.90 in 10.0 mi SW 5.8 mph - N/A   Partly Cloudy
2:56 AM 64.0 °F 55.0 °F 73% 29.87 in 10.0 mi SSW 5.8 mph - N/A   Partly Cloudy
3:56 AM 57.0 °F 55.0 °F 93% 29.85 in 5.0 mi SE 6.9 mph - N/A   Scattered Clouds
4:56 AM 60.1 °F 55.9 °F 86% 29.84 in 7.0 mi Calm Calm - N/A   Overcast
5:56 AM 62.1 °F 55.0 °F 78% 29.83 in 10.0 mi Variable 3.5 mph - N/A   Mostly Cloudy
6:56 AM 62.1 °F 55.0 °F 78% 29.83 in 10.0 mi SSW 6.9 mph - N/A   Mostly Cloudy
7:56 AM 62.1 °F 55.9 °F 80% 29.83 in 8.0 mi SSW 4.6 mph - N/A   Mostly Cloudy
8:56 AM 63.0 °F 55.9 °F 78% 29.82 in 9.0 mi SSW 11.5 mph 17.3 mph N/A   Mostly Cloudy
9:56 AM 64.0 °F 57.0 °F 78% 29.83 in 9.0 mi Calm Calm - N/A   Overcast
10:56 AM 64.9 °F 57.0 °F 75% 29.83 in 8.0 mi WNW 9.2 mph - N/A   Overcast
11:56 AM 66.0 °F 57.9 °F 75% 29.85 in 8.0 mi WNW 9.2 mph - N/A   Overcast
12:39 PM 64.4 °F 55.4 °F 73% 29.87 in 10.0 mi NNW 19.6 mph 24.2 mph N/A   Overcast
12:56 PM 63.0 °F 53.1 °F 70% 29.88 in 10.0 mi NW 15.0 mph - N/A   Overcast
1:10 PM 64.4 °F 53.6 °F 68% 29.88 in 10.0 mi NW 18.4 mph - N/A   Overcast
1:56 PM 66.0 °F 48.9 °F 54% 29.88 in 10.0 mi WNW 17.3 mph 27.6 mph N/A   Mostly Cloudy
2:56 PM 63.0 °F 46.9 °F 56% 29.91 in 10.0 mi NW 17.3 mph 26.5 mph N/A   Mostly Cloudy
3:56 PM 63.0 °F 43.0 °F 48% 29.94 in 10.0 mi NW 15.0 mph 26.5 mph N/A   Scattered Clouds
4:56 PM 60.1 °F 43.0 °F 53% 29.94 in 10.0 mi WNW 12.7 mph - N/A   Scattered Clouds
5:56 PM 59.0 °F 41.0 °F 51% 29.95 in 10.0 mi NW 10.4 mph - N/A   Scattered Clouds
6:56 PM 57.0 °F 44.1 °F 62% 29.97 in 10.0 mi WNW 3.5 mph - N/A   Partly Cloudy
7:56 PM 53.1 °F 42.1 °F 66% 30.00 in 10.0 mi NW 4.6 mph - N/A   Partly Cloudy
8:56 PM 52.0 °F 44.1 °F 74% 30.02 in 10.0 mi Calm Calm - N/A   Clear
9:56 PM 52.0 °F 42.1 °F 69% 30.04 in 10.0 mi WNW 6.9 mph - N/A   Partly Cloudy
10:56 PM 51.1 °F 41.0 °F 68% 30.06 in 10.0 mi NW 5.8 mph - N/A   Scattered Clouds
11:56 PM 50.0 °F 42.1 °F 74% 30.06 in 10.0 mi NW 6.9 mph - N/A   Scattered Clouds